Temp
9 9 9 9 9 9 9 9 8 8 8 8 8 8 8 7 8 8 8 7 7 8 8 8 8 8 8 8 8 8 8 8 8 9 9 9 9 9 9 9 9 9 9
9 9 9 9 9 9 9 9 9 8 8 8 7 7 8 7 7 7 8 7 7 7 7 8 8 8 8 8 8 8 8 8 8 9 9 9 9 9 9 9 9 9 9
8 8 9 9 9 9 9 9 9 9 8 8 8 7 7 7 7 7 7 7 7 7 8 8 8 8 8 8 8 8 8 8 8 8 9 9 9 9 9 9 9 9 9
8 8 8 8 8 8 9 8 8 8 8 8 8 7 7 7 7 7 7 7 7 7 7 8 8 8 8 8 8 8 8 8 8 8 8 8 8 8 8 8 8 9 9
8 8 8 8 8 8 8 8 8 8 8 8 8 7 7 7 7 7 7 7 7 7 7 7 8 8 8 8 8 8 8 8 8 8 8 8 8 7 6 6 6 6 7
7 7 7 7 7 7 8 8 8 8 8 7 8 8 7 7 7 7 7 7 7 7 7 6 7 7 8 8 8 8 8 8 7 7 7 7 7 6 6 6 6 6 7
7 7 6 6 6 6 6 7 7 7 7 7 7 7 7 7 7 7 7 7 7 7 7 6 6 7 7 8 7 7 8 7 7 7 7 5 4 5 6 6 6 7 8
7 6 6 6 6 6 6 6 6 6 7 7 7 7 7 7 7 6 6 6 6 6 6 6 6 7 7 7 7 7 7 7 7 6 5 5 4 5 7 6 6 7 8
6 6 6 6 6 7 7 6 6 6 6 6 7 7 6 6 7 7 6 6 6 6 6 6 6 6 7 7 7 7 7 6 7 6 5 5 5 6 7 7 7 7 8
7 6 7 6 6 6 6 7 7 6 6 6 6 6 6 6 6 6 6 6 6 6 6 6 6 5 5 6 7 7 7 6 6 6 6 5 6 7 7 8 8 8 8
6 6 6 6 6 6 6 6 6 6 6 6 6 6 6 6 6 6 6 7 6 6 6 5 5 5 5 5 5 6 7 6 6 5 5 6 7 7 7 8 8 8 8
6 6 6 6 6 6 6 6 6 6 6 6 6 6 6 6 6 6 6 6 6 6 6 6 5 5 5 5 5 5 6 6 7 6 6 7 7 8 8 8 8 8 8
6 6 6 6 6 6 6 6 6 6 6 6 6 6 6 5 5 6 6 6 5 6 6 6 6 5 5 5 5 5 5 6 6 7 7 6 7 7 7 8 8 8 8
6 5 5 5 5 5 5 6 6 6 6 6 6 6 6 6 5 5 5 5 5 5 5 6 6 5 5 5 5 5 5 5 6 6 8 7 7 7 7 7 8 8 8
6 5 5 5 5 5 5 5 5 6 6 6 6 6 6 6 6 5 5 5 5 5 5 5 5 5 5 5 5 5 5 5 6 6 7 7 7 7 7 7 7 7 7
6 5 5 5 5 5 5 5 5 5 5 5 6 6 6 6 6 5 5 5 5 5 5 5 5 5 5 4 5 4 5 5 5 6 6 7 7 7 7 7 7 7 7
6 5 5 5 4 4 5 5 5 5 5 5 5 5 5 5 5 5 5 5 5 5 4 5 4 4 5 4 5 4 4 4 5 5 6 6 6 6 6 6 4 6 4
6 6 5 5 4 4 5 4 4 4 4 4 5 5 5 5 5 5 5 5 5 5 4 4 4 4 5 4 4 4 4 5 5 5 6 6 6 6 6 5 3 5 4
6 5 6 5 4 4 4 5 5 5 5 4 4 4 4 4 4 5 5 5 5 5 4 4 4 4 4 4 4 4 4 4 5 5 5 6 6 5 5 4 4 3 3
5 5 5 5 4 4 4 4 4 4 4 4 4 4 4 4 4 4 5 5 4 4 4 4 3 4 4 4 4 3 3 2 3 4 5 5 5 5 5 4 3 3 3
5 5 5 4 4 4 4 4 4 4 4 4 4 4 4 3 4 4 4 4 4 4 4 4 4 2 4 3 4 4 3 3 3 3 3 4 5 5 4 4 3 3 3
5 5 5 4 3 3 3 3 3 4 4 3 3 3 3 3 3 3 3 3 3 4 4 3 3 3 2 3 3 2 3 3 2 1 3 4 4 4 4 3 3 3 2
5 4 4 3 3 3 3 3 3 3 3 3 3 3 2 2 3 3 2 2 2 2 3 3 3 3 3 2 2 3 2 2 3 3 3 3 3 2 3 3 3 3 3
4 4 3 3 2 2 2 2 2 3 2 2 2 2 2 2 2 2 2 2 2 2 2 2 2 2 2 2 2 3 2 1 2 2 2 2 3 2 3 3 3 3 2
3 2 2 2 2 2 2 2 2 2 2 2 2 2 2 2 2 2 2 2 1 1 2 1 1 1 1 2 2 1 2 1 2 2 2 2 2 2 2 1 2 2 2
1 1 1 1 1 1 1 1 2 2 2 2 1 1 1 1 1 1 1 1 1 1 1 1 1 1 1 0 0 1 2 2 3 2 1 2 2 1 2 1 0 2 2
Height
3142 3143 3144 3145 3145 3145 3146 3147 3148 3149 3150 3151 3151 3153 3153 3155 3156 3157 3158 3159 3160 3161 3162 3163 3163 3163 3164 3165 3165 3164 3164 3165 3165 3166 3167 3168 3168 3170 3171 3172 3172 3174 3175
3141 3143 3144 3144 3145 3146 3147 3148 3148 3149 3150 3151 3152 3152 3154 3155 3156 3157 3159 3160 3160 3161 3162 3162 3162 3163 3163 3164 3165 3165 3165 3165 3166 3166 3168 3169 3170 3171 3172 3174 3174 3175 3177
3141 3142 3143 3144 3145 3146 3147 3147 3148 3149 3150 3151 3152 3152 3154 3154 3155 3156 3158 3159 3160 3161 3162 3162 3162 3162 3163 3164 3165 3165 3165 3165 3166 3167 3168 3170 3171 3172 3173 3175 3176 3178 3178
3140 3141 3143 3144 3144 3145 3146 3147 3148 3149 3150 3150 3150 3152 3153 3154 3155 3156 3157 3158 3159 3160 3161 3162 3162 3162 3163 3164 3165 3165 3166 3166 3167 3167 3168 3170 3172 3174 3175 3177 3177 3178 3179
3139 3140 3142 3143 3143 3144 3145 3146 3147 3148 3149 3149 3150 3150 3152 3153 3154 3155 3156 3157 3158 3159 3160 3161 3161 3162 3162 3163 3164 3165 3166 3167 3168 3168 3170 3172 3173 3175 3177 3178 3179 3180 3181
3138 3138 3139 3140 3141 3142 3143 3144 3145 3146 3147 3148 3149 3150 3151 3152 3153 3154 3155 3156 3157 3158 3160 3160 3161 3161 3162 3163 3164 3165 3166 3167 3168 3169 3170 3172 3174 3176 3177 3177 3180 3180 3182
3134 3135 3136 3137 3138 3140 3141 3142 3142 3144 3145 3146 3147 3148 3149 3151 3152 3153 3154 3155 3156 3158 3159 3159 3160 3161 3162 3162 3163 3164 3166 3167 3169 3169 3171 3173 3175 3176 3177 3179 3180 3181 3182
3131 3132 3132 3134 3135 3136 3137 3139 3140 3141 3143 3144 3145 3147 3147 3149 3150 3151 3153 3154 3155 3157 3158 3159 3159 3160 3161 3162 3163 3164 3165 3167 3169 3170 3172 3173 3174 3175 3176 3178 3180 3181 3182
3129 3129 3130 3130 3131 3132 3133 3134 3136 3138 3139 3141 3143 3144 3145 3146 3148 3149 3151 3152 3154 3155 3156 3158 3158 3159 3160 3161 3162 3163 3164 3166 3168 3169 3171 3172 3173 3174 3175 3177 3179 3181 3182
3126 3126 3127 3128 3129 3130 3130 3131 3132 3133 3135 3137 3139 3141 3142 3144 3145 3147 3148 3150 3152 3153 3154 3156 3157 3158 3159 3160 3161 3162 3163 3165 3167 3168 3170 3171 3171 3173 3175 3177 3178 3180 3181
3122 3122 3123 3124 3126 3127 3128 3128 3129 3129 3131 3132 3135 3137 3139 3141 3142 3144 3146 3148 3149 3151 3152 3154 3155 3157 3157 3159 3160 3161 3162 3163 3165 3167 3168 3169 3171 3172 3173 3175 3177 3179 3180
3120 3119 3120 3120 3121 3123 3124 3125 3125 3126 3127 3128 3130 3132 3135 3137 3139 3141 3143 3145 3147 3148 3149 3151 3153 3155 3156 3158 3159 3160 3161 3162 3163 3165 3166 3168 3170 3171 3172 3174 3175 3177 3179
3117 3117 3117 3117 3117 3118 3120 3121 3122 3122 3123 3124 3126 3128 3130 3132 3134 3136 3138 3141 3143 3144 3146 3147 3149 3151 3153 3155 3157 3158 3159 3160 3161 3162 3164 3165 3168 3170 3171 3172 3174 3175 3177
3113 3113 3113 3114 3114 3114 3115 3116 3117 3118 3119 3121 3122 3123 3125 3127 3129 3132 3134 3137 3138 3140 3142 3144 3146 3149 3150 3151 3153 3156 3157 3158 3159 3159 3160 3164 3165 3167 3169 3170 3172 3173 3175
3110 3110 3109 3110 3111 3111 3111 3111 3112 3113 3114 3116 3118 3119 3120 3122 3124 3126 3129 3131 3133 3136 3137 3139 3142 3144 3146 3148 3150 3152 3154 3154 3155 3156 3156 3160 3162 3164 3166 3167 3169 3171 3173
3108 3107 3107 3107 3106 3106 3107 3108 3108 3108 3109 3110 3112 3114 3115 3116 3118 3120 3123 3125 3128 3131 3133 3134 3137 3139 3142 3144 3146 3148 3150 3151 3151 3152 3153 3156 3158 3160 3162 3164 3166 3167 3170
3104 3103 3103 3103 3102 3102 3102 3102 3102 3104 3104 3105 3106 3107 3109 3110 3112 3113 3116 3119 3122 3125 3127 3129 3131 3133 3136 3139 3141 3143 3145 3146 3147 3148 3149 3151 3153 3155 3158 3160 3162 3164 3167
3100 3099 3098 3097 3097 3098 3098 3097 3097 3097 3098 3099 3099 3100 3102 3104 3105 3107 3109 3111 3114 3118 3120 3122 3125 3127 3130 3133 3135 3136 3140 3141 3143 3144 3144 3147 3149 3151 3153 3156 3159 3161 3164
3094 3094 3093 3093 3093 3093 3092 3092 3091 3091 3091 3092 3093 3093 3094 3095 3097 3099 3101 3104 3106 3109 3112 3115 3117 3121 3123 3126 3130 3131 3132 3135 3137 3139 3139 3142 3145 3147 3149 3151 3154 3157 3160
3088 3087 3087 3087 3087 3087 3087 3087 3086 3085 3085 3085 3086 3086 3087 3088 3089 3091 3092 3094 3097 3100 3103 3106 3109 3113 3115 3119 3123 3125 3127 3122 3129 3131 3132 3135 3139 3142 3144 3147 3149 3152 3155
3081 3081 3081 3081 3081 3081 3081 3081 3081 3081 3079 3079 3079 3080 3080 3081 3082 3082 3084 3086 3088 3090 3094 3097 3100 3103 3108 3112 3115 3115 3119 3122 3122 3122 3126 3127 3132 3136 3139 3141 3144 3147 3150
3073 3073 3073 3074 3074 3075 3075 3076 3075 3074 3074 3073 3073 3073 3073 3073 3074 3075 3076 3077 3079 3081 3084 3087 3090 3093 3098 3101 3104 3109 3108 3113 3113 3112 3119 3121 3127 3129 3132 3135 3138 3141 3144
3064 3065 3066 3067 3068 3068 3069 3070 3070 3068 3067 3066 3065 3066 3066 3066 3066 3067 3068 3070 3071 3072 3075 3077 3080 3083 3088 3092 3095 3099 3101 3100 3104 3107 3115 3115 3117 3122 3127 3127 3132 3135 3137
3056 3057 3059 3060 3061 3062 3063 3064 3064 3062 3061 3059 3058 3058 3058 3059 3059 3058 3060 3061 3062 3064 3065 3069 3071 3074 3077 3081 3085 3089 3092 3094 3096 3100 3103 3107 3111 3112 3117 3121 3124 3128 3129
3049 3050 3052 3054 3055 3056 3057 3057 3057 3056 3054 3052 3051 3051 3051 3050 3050 3050 3050 3051 3052 3054 3056 3059 3062 3065 3067 3070 3074 3079 3084 3082 3087 3091 3091 3097 3101 3104 3109 3108 3118 3121 3122
3042 3044 3046 3048 3049 3050 3050 3050 3050 3048 3047 3045 3044 3043 3044 3042 3042 3041 3040 3040 3042 3042 3045 3048 3051 3054 3057 3060 3062 3066 3070 3075 3077 3082 3085 3090 3094 3096 3098 3102 3107 3113 3115
Wind_Speed
8 5 4 4 5 6 7 9 8 9 8 8 7 6 5 5 3 3 3 3 1 1 1 2 3 4 3 3 2 1 1 3 5 7 8 10 11 12 12 12 13 13 12
8 6 6 6 6 5 6 8 8 9 9 8 8 7 6 6 6 5 5 6 5 3 3 2 2 2 2 1 2 1 2 5 6 8 9 10 10 11 12 12 12 13 12
11 8 7 8 8 5 6 7 7 7 8 9 9 9 8 8 6 5 5 6 8 6 4 3 2 2 1 1 1 2 2 4 6 9 10 11 10 11 12 12 12 12 12
8 10 9 9 8 8 9 8 7 7 8 9 11 11 9 10 10 8 7 7 8 7 5 4 3 3 2 1 1 2 2 4 6 9 12 12 12 12 12 12 11 11 11
13 13 13 13 12 11 11 11 11 10 10 10 11 12 12 12 12 12 12 10 8 7 6 5 4 4 4 3 2 2 3 5 7 9 10 12 13 13 12 13 10 10 10
17 18 17 17 16 15 15 14 15 14 13 12 12 12 13 12 11 12 11 9 8 7 6 5 4 4 5 4 3 3 4 6 8 8 10 10 11 14 14 14 16 15 16
19 20 19 19 19 19 18 18 17 16 15 15 15 14 13 13 13 12 10 9 8 7 7 6 6 6 5 4 3 3 5 7 9 10 10 9 12 15 15 14 17 15 14
15 16 19 21 23 24 23 21 21 20 18 17 18 17 16 15 15 13 12 11 10 9 7 7 6 6 5 5 4 3 4 8 10 12 9 13 15 16 20 18 17 16 14
15 14 15 16 16 18 20 25 28 27 24 22 21 19 19 18 18 17 15 15 13 11 11 9 8 5 4 5 4 4 5 7 12 13 14 16 15 18 19 19 17 16 14
15 17 16 15 15 15 16 17 19 24 30 28 26 24 21 22 21 20 20 19 16 15 14 11 12 8 6 5 4 4 6 8 11 18 19 14 19 18 17 17 16 16 15
15 16 17 17 16 16 15 15 17 18 20 28 31 28 26 24 24 23 22 21 20 19 17 14 14 12 12 8 7 6 6 10 12 13 17 17 18 19 18 17 17 17 17
17 20 19 19 18 18 18 18 18 18 19 21 25 30 30 27 26 25 25 24 23 23 21 20 18 17 16 12 10 9 8 9 13 15 17 18 17 18 19 19 19 18 18
19 20 20 19 19 19 19 20 20 20 20 21 22 24 30 30 29 30 28 25 26 26 25 24 23 21 19 20 14 13 12 12 14 16 19 19 19 20 20 20 20 20 19
16 17 19 19 20 20 20 21 21 23 23 22 22 24 26 31 30 30 29 29 29 28 28 28 26 26 24 21 19 16 15 15 16 17 20 19 21 22 23 22 20 21 21
16 18 19 19 19 21 21 22 22 23 24 25 25 26 26 28 32 31 31 31 31 31 31 30 29 28 27 27 25 21 18 17 18 20 22 20 21 22 24 25 22 22 22
16 19 20 20 21 22 24 25 25 25 25 26 27 28 29 29 31 35 35 33 34 32 32 33 31 31 29 28 28 26 23 21 20 23 22 21 22 22 23 25 25 25 24
18 20 21 22 22 24 25 26 27 29 28 30 30 30 30 31 32 34 35 38 36 36 35 35 35 34 32 31 32 30 28 25 24 24 24 22 23 22 23 25 22 25 18
21 21 23 24 25 24 24 23 25 27 29 30 32 34 33 34 34 35 36 37 38 37 39 40 39 38 36 35 35 34 34 32 30 27 27 26 24 22 22 26 21 27 22
24 24 25 26 26 26 25 25 26 27 28 30 30 32 34 36 36 37 38 38 39 40 42 41 41 42 40 39 36 42 40 37 35 37 32 28 26 25 24 29 31 22 28
27 28 27 27 27 26 25 26 27 28 30 31 31 32 33 35 37 38 39 40 41 41 43 45 42 34 43 40 39 42 42 32 37 39 39 31 29 27 27 32 34 32 33
28 29 29 29 28 26 25 26 27 27 30 32 32 32 32 32 34 37 39 40 41 42 42 44 46 49 35 43 34 46 43 47 48 37 38 33 33 30 30 33 37 37 36
30 31 32 30 29 27 27 29 30 30 30 31 33 32 33 32 33 35 37 38 39 41 41 43 46 49 49 41 40 47 44 51 40 42 50 46 41 36 32 35 36 40 39
35 33 33 31 30 29 28 28 28 28 29 31 32 34 34 34 33 34 35 37 38 39 41 41 43 47 48 52 43 40 55 53 48 53 51 43 47 43 36 34 37 40 42
34 33 33 31 29 29 28 27 27 29 26 28 32 34 34 35 35 37 37 38 39 40 41 41 41 41 44 49 55 52 44 50 53 51 50 50 48 45 42 40 38 40 43
33 33 31 29 29 29 28 29 29 30 30 29 31 32 33 35 36 37 38 38 40 41 42 42 41 42 43 46 49 55 50 40 43 52 46 51 49 46 51 39 40 41 42
32 31 29 29 29 28 29 29 29 29 30 31 30 31 32 35 34 35 37 37 38 42 44 45 46 47 44 43 44 49 59 61 60 43 55 49 45 41 44 46 44 43 42
Wind_Direction
224 222 221 215 182 157 167 177 190 188 187 191 191 206 203 200 193 201 216 207 192 163 155 197 226 236 253 252 254 229 175 164 155 149 146 145 142 139 139 138 135 136 134
227 242 241 216 196 171 182 191 199 202 205 205 212 214 211 222 228 233 239 239 246 268 276 265 276 232 175 201 280 267 184 164 156 152 152 150 146 143 138 136 140 138 140
236 238 229 212 201 199 212 204 205 214 221 216 221 223 225 228 237 234 235 250 252 263 273 270 279 258 181 221 273 245 208 157 155 158 160 154 150 146 140 144 145 145 145
233 230 228 236 240 229 225 226 220 219 221 227 228 226 234 242 246 246 247 260 260 261 278 285 287 266 248 252 276 257 197 171 166 162 163 156 157 154 150 146 144 149 147
259 250 247 250 245 241 237 239 242 235 225 229 235 230 225 240 248 248 259 263 254 256 269 281 275 271 248 255 269 250 215 183 172 158 156 160 160 150 142 134 157 151 155
267 261 253 246 242 238 237 239 242 239 238 236 237 234 228 229 238 252 257 246 245 245 260 242 252 266 250 254 258 242 216 197 177 168 160 159 160 160 148 166 147 156 154
259 260 255 247 243 241 238 239 240 237 236 241 239 235 231 226 229 235 232 231 233 251 254 232 252 248 238 242 258 248 219 200 185 174 167 158 180 187 181 174 171 167 163
263 256 254 250 250 249 247 243 243 242 241 239 240 236 235 231 230 233 230 225 226 236 233 238 248 238 234 230 226 223 217 203 189 173 158 185 202 194 186 191 187 183 178
263 258 256 256 254 253 253 252 246 244 243 241 241 237 237 236 233 232 231 233 233 235 229 241 240 229 228 235 222 231 203 215 198 178 184 206 210 201 191 193 193 192 188
268 264 258 257 258 258 257 255 253 247 243 242 242 242 239 238 238 238 234 233 238 239 241 238 239 232 228 245 246 244 224 210 217 202 197 204 201 198 196 199 199 199 196
261 261 268 268 264 259 259 259 258 256 251 244 242 242 243 242 241 240 241 241 242 242 240 236 239 249 247 232 253 260 244 230 225 225 215 218 212 206 205 208 209 208 203
263 265 268 266 267 265 262 261 260 258 256 251 246 243 242 242 245 245 243 243 241 242 238 236 236 236 241 250 248 255 259 248 242 237 233 236 230 215 209 212 214 215 211
268 271 267 267 268 268 266 264 262 260 256 254 252 247 243 242 241 242 244 245 244 244 242 237 235 236 238 260 252 259 257 259 254 244 241 234 234 231 222 217 219 219 213
275 266 268 269 268 268 269 267 263 262 259 255 251 249 245 241 242 243 243 244 246 246 247 243 239 239 239 247 253 253 258 261 260 257 246 238 235 234 232 229 225 223 215
287 275 273 272 273 275 274 271 269 265 262 259 255 250 248 244 242 243 243 242 244 247 246 246 246 244 244 245 251 254 259 266 259 259 257 243 240 237 237 236 229 224 219
285 281 278 277 277 279 278 276 273 269 266 263 259 255 251 247 243 242 242 242 242 244 247 247 246 248 248 246 246 249 254 258 261 255 256 251 245 243 240 240 226 221 219
288 282 278 276 276 279 280 279 276 272 266 264 262 258 255 251 248 245 243 243 242 240 243 245 245 246 245 245 249 246 250 251 257 258 254 254 246 242 243 239 218 217 207
281 282 279 277 276 276 278 280 279 277 274 267 262 261 256 253 251 248 245 243 242 241 241 244 245 245 247 247 242 249 246 255 259 259 256 253 248 240 236 233 205 215 195
275 277 276 269 268 270 274 278 279 278 275 273 267 260 258 255 252 251 249 245 241 239 238 242 243 244 246 248 248 245 243 245 252 261 255 250 250 241 232 227 222 205 202
269 272 270 264 264 268 273 275 277 278 276 273 270 263 259 257 255 253 252 250 247 241 239 238 238 255 242 245 245 244 248 256 248 251 251 247 246 245 235 226 225 221 214
266 266 262 257 255 259 265 273 277 279 276 273 270 269 263 258 256 255 254 253 252 249 244 241 239 237 242 251 251 247 245 257 242 236 249 249 245 242 240 234 227 229 227
264 261 257 251 248 252 261 270 277 280 278 273 271 268 266 262 257 255 253 252 251 251 249 245 241 242 236 239 248 247 251 245 243 255 249 250 245 246 238 237 231 229 228
260 256 252 247 245 251 262 272 275 279 279 275 272 267 265 268 265 262 259 254 252 252 251 249 246 244 240 239 238 245 245 253 251 246 247 250 248 247 241 239 232 231 234
256 250 245 244 246 251 261 268 276 279 287 279 272 270 268 265 266 267 265 260 254 251 250 249 246 245 245 240 237 240 246 252 252 257 252 247 255 249 247 241 239 237 236
252 244 242 244 247 257 262 269 279 282 283 283 277 271 269 268 268 267 267 263 260 256 251 248 248 247 244 245 241 241 240 242 250 253 253 252 255 247 264 246 244 243 240
242 240 242 243 247 255 266 275 280 282 285 282 279 274 267 265 266 267 271 265 263 260 256 251 248 247 247 244 243 241 238 241 252 258 259 256 252 253 262 254 243 250 246